Missoula, MT

2:13 AM MDT on May 28, 2018 (GMT -0600)
Missoula International

Weather History for KMSO - March, 2014

Change the Weather History Date:

Sunday, March 9, 2014

  Actual Average Record
Temperature  
Mean Temperature 47 °F 37 °F  
Max Temperature 55 °F 47 °F 64 °F (2005)
Min Temperature 39 °F 26 °F -2 °F (1932)
Degree Days  
Heating Degree Days 18 28  
Month to date heating degree days 300 267  
Since 1 July heating degree days 5810 5636  
Cooling Degree Days 0 0  
Month to date cooling degree days 0 0  
Year to date cooling degree days 0 0  
Moisture  
Dew Point 38 °F    
Average Humidity 67    
Maximum Humidity 83    
Minimum Humidity 50    
Precipitation  
Precipitation 0.04 in 0.03 in 0.33 in (2017)
Month to date precipitation 0.68 0.26  
Year to date precipitation 4.03 1.81  
Snow  
Snow 0.00 in - - ()
Month to date snowfall 2.9  
Year to date snowfall 49.6  
Since 1 July snowfall 63.5  
Snow Depth T in    
Sea Level Pressure  
Sea Level Pressure 29.97 in    
Wind  
Wind Speed 6 mph (East)    
Max Wind Speed 16 mph    
Max Gust Speed 20 mph    
Visibility 10 miles    
Events Rain    
T = Trace of Precipitation, MM = Missing Value Source: NWS Daily Summary

Daily Weather History Graph

Daily Weather History Graph

Search for Another Location

Airport or City:

Astronomy

Mar. 09, 2014 Rise Set
Actual Time 8:00 AM MDT 7:33 PM MDT
Civil Twilight 7:30 AM MDT 8:03 PM MDT
Nautical Twilight 6:55 AM MDT 8:39 PM MDT
Astronomical Twilight 6:19 AM MDT 9:15 PM MDT
Moon 1:13 PM MDT (3/9) 3:45 AM MDT (3/9)
Length of Visible Light 12h 33m
Length of Day
11h 32m
First Quarter, 61% of the Moon is Illuminated
Mar 9
First Quarter
Mar 16
Full
Mar 23
Last Quarter
Mar 30
New
Apr 7
First Quarter

Hourly Weather History & Observations

Time (MDT) Temp. Windchill Dew Point Humidity Pressure Visibility Wind Dir Wind Speed Gust Speed Precip Events Conditions
12:53 AM 42.1 °F 40.2 °F 28.9 °F 60% 30.04 in 10.0 mi East 3.5 mph - N/A   Overcast
1:53 AM 39.9 °F 35.8 °F 30.9 °F 70% 30.04 in 10.0 mi ESE 5.8 mph - N/A   Overcast
3:53 AM 44.1 °F 41.5 °F 32.0 °F 63% 30.01 in 10.0 mi ESE 4.6 mph - N/A   Overcast
4:53 AM 44.1 °F 41.5 °F 35.1 °F 71% 29.99 in 10.0 mi East 4.6 mph - N/A   Mostly Cloudy
5:53 AM 45.0 °F - 36.0 °F 71% 29.97 in 10.0 mi Calm Calm - N/A   Mostly Cloudy
6:53 AM 43.0 °F 40.3 °F 35.1 °F 74% 29.97 in 10.0 mi ENE 4.6 mph - N/A   Mostly Cloudy
7:53 AM 45.0 °F 40.1 °F 36.0 °F 71% 29.97 in 10.0 mi SE 9.2 mph - N/A   Mostly Cloudy
8:53 AM 46.0 °F 43.1 °F 37.0 °F 71% 30.00 in 10.0 mi East 5.8 mph - N/A   Overcast
9:53 AM 45.0 °F 40.1 °F 37.9 °F 76% 30.01 in 10.0 mi SE 9.2 mph - N/A   Overcast
10:53 AM 46.9 °F - 39.0 °F 74% 30.01 in 10.0 mi SSE 10.4 mph - N/A   Overcast
11:53 AM 48.0 °F - 39.9 °F 74% 29.99 in 10.0 mi SE 9.2 mph - N/A   Overcast
12:53 PM 48.9 °F - 39.9 °F 71% 29.99 in 10.0 mi SSE 9.2 mph - N/A   Overcast
1:53 PM 50.0 °F - 39.9 °F 68% 29.99 in 10.0 mi SSE 9.2 mph - N/A   Mostly Cloudy
2:53 PM 52.0 °F - 42.1 °F 69% 29.96 in 10.0 mi SSE 11.5 mph - N/A   Overcast
3:53 PM 54.0 °F - 39.0 °F 57% 29.95 in 10.0 mi Variable 5.8 mph - N/A   Overcast
4:53 PM 54.0 °F - 39.0 °F 57% 29.94 in 10.0 mi NNE 4.6 mph - N/A   Overcast
5:53 PM 53.1 °F - 39.9 °F 61% 29.92 in 10.0 mi NW 9.2 mph - N/A   Scattered Clouds
6:53 PM 46.9 °F - 39.9 °F 77% 29.95 in 10.0 mi NW 8.1 mph - 0.00 in   Mostly Cloudy
7:53 PM 45.0 °F - 39.9 °F 82% 29.97 in 10.0 mi Calm Calm - N/A   Overcast
8:53 PM 46.0 °F 43.9 °F 39.0 °F 76% 29.96 in 10.0 mi ENE 4.6 mph - N/A   Overcast
9:37 PM 44.1 °F - 37.0 °F 76% 29.94 in 10.0 mi Calm Calm - N/A   Overcast
9:53 PM 43.0 °F 40.3 °F 37.0 °F 80% 29.97 in 10.0 mi WNW 4.6 mph - N/A   Overcast
10:42 PM 42.1 °F 37.7 °F 39.9 °F 92% 29.95 in 10.0 mi North 6.9 mph - 0.00 in Rain Light Rain
10:53 PM 43.0 °F 38.8 °F 39.9 °F 89% 29.97 in 10.0 mi North 6.9 mph - 0.01 in Rain Light Rain
11:53 PM 39.9 °F 35.8 °F 39.0 °F 97% 29.97 in 10.0 mi South 5.8 mph - 0.00 in Rain Light Rain
12:53 AM 39.9 °F 35.8 °F 39.0 °F 97% 29.97 in 5.0 mi NNW 5.8 mph - 0.02 in Rain Light Rain